FW8453 Weather Reports


Display with metric or nautical units.
time (UTC)temp
F
wind
direction
speed
MPH
gust
MPH
rain 1hr
in
rain 24hr
in
rain mn
in
humidity
%
barometer
mb
20260507153925 63 135 4.0 7.0 0.00 0.00 0.00 33 1009.4
20260507152906 63 90 4.0 11.0 0.00 0.00 0.00 33 1009.0
20260507152357 65 23 2.0 7.0 0.00 0.00 0.00 34 1009.0
20260507151845 62 90 2.0 9.0 0.00 0.00 0.00 34 1008.8
20260507151336 61 90 4.0 9.0 0.00 0.00 0.00 40 1009.1
20260507150826 63 135 2.0 8.0 0.00 0.00 0.00 38 1009.0
20260507150316 61 158 4.0 6.0 0.00 0.00 0.00 38 1009.0
20260507145805 61 225 2.0 6.0 0.00 0.00 0.00 41 1009.4
20260507145254 60 135 3.0 6.0 0.00 0.00 0.00 40 1009.4
20260507144745 60 90 3.0 7.0 0.00 0.00 0.00 40 1009.5
20260507144235 60 113 4.0 8.0 0.00 0.00 0.00 43 1009.2
20260507143724 58 68 5.0 8.0 0.00 0.00 0.00 43 1008.9
20260507143214 58 90 3.0 6.0 0.00 0.00 0.00 43 1008.9
20260507142704 58 180 2.0 6.0 0.00 0.00 0.00 44 1009.0
20260507142154 58 90 3.0 6.0 0.00 0.00 0.00 43 1009.0
20260507141645 59 113 2.0 8.0 0.00 0.00 0.00 45 1009.1
20260507141134 57 68 4.0 8.0 0.00 0.00 0.00 46 1009.1
20260507140624 57 90 2.0 9.0 0.00 0.00 0.00 47 1009.0
20260507140114 57 113 4.0 9.0 0.00 0.00 0.00 45 1009.4
20260507135054 56 90 2.0 7.0 0.00 0.00 0.00 45 1009.1
20260507134545 56 113 3.0 13.0 0.00 0.00 0.00 46 1009.0
20260507134033 56 113 2.0 13.0 0.00 0.00 0.00 46 1009.0
20260507133523 56 68 6.0 11.0 0.00 0.00 0.00 45 1008.7
20260507131443 57 135 5.0 11.0 0.00 0.00 0.00 44 1009.0
20260507125912 57 90 2.0 6.0 0.00 0.00 0.00 45 1009.2
20260507125402 57 90 2.0 6.0 0.00 0.00 0.00 43 1009.1
20260507124852 57 90 2.0 4.0 0.00 0.00 0.00 46 1008.9
20260507123832 57 135 0.0 4.0 0.00 0.00 0.00 43 1008.7
20260507123322 57 90 2.0 4.0 0.00 0.00 0.00 44 1008.3
20260507122812 58 23 2.0 7.0 0.00 0.00 0.00 43 1008.1
20260507122306 58 135 4.0 8.0 0.00 0.00 0.00 42 1008.3
20260507121751 58 158 4.0 9.0 0.00 0.00 0.00 41 1008.3
20260507121242 58 180 3.0 17.0 0.00 0.00 0.00 42 1008.4
20260507120731 59 180 7.0 18.0 0.00 0.00 0.00 40 1008.5
20260507120221 59 158 5.0 18.0 0.00 0.00 0.00 39 1008.0
20260507115711 59 158 8.0 15.0 0.00 0.00 0.00 39 1007.7
20260507114651 58 135 4.0 9.0 0.00 0.00 0.00 45 1007.9
20260507114144 58 113 2.0 7.0 0.00 0.00 0.00 48 1008.0
20260507113631 58 113 3.0 7.0 0.00 0.00 0.00 48 1008.2
20260507113120 58 135 2.0 4.0 0.00 0.00 0.00 52 1008.5
20260507112611 58 135 2.0 6.0 0.00 0.00 0.00 46 1008.3
20260507112100 58 135 2.0 6.0 0.00 0.00 0.00 52 1008.0
20260507111550 58 180 2.0 2.0 0.00 0.00 0.00 49 1008.2
20260507111040 58 203 2.0 4.0 0.00 0.00 0.00 52 1007.9
20260507110530 57 158 2.0 7.0 0.00 0.00 0.00 54 1006.9
20260507110020 58 135 1.0 11.0 0.00 0.00 0.00 53 1006.3
20260507105509 57 203 4.0 11.0 0.00 0.00 0.00 52 1006.4
20260507105000 57 180 4.0 11.0 0.00 0.00 0.00 54 1005.9
20260507104449 57 203 4.0 14.0 0.00 0.00 0.00 56 1005.8
20260507103940 56 203 4.0 14.0 0.00 0.00 0.00 61 1005.6
20260507103429 56 135 4.0 8.0 0.00 0.00 0.00 66 1005.6
20260507102919 56 225 4.0 8.0 0.00 0.00 0.00 64 1005.6
20260507102409 57 203 2.0 15.0 0.00 0.00 0.00 63 1005.8
20260507101859 58 158 5.0 16.0 0.00 0.00 0.00 59 1006.2
20260507101350 58 180 4.0 16.0 0.00 0.00 0.00 57 1006.3
20260507100839 58 180 9.0 16.0 0.00 0.00 0.00 55 1006.1
20260507100330 58 180 5.0 14.0 0.00 0.00 0.00 54 1005.3
20260507095819 58 180 4.0 11.0 0.00 0.00 0.00 53 1004.8
20260507095308 58 225 6.0 11.0 0.00 0.00 0.00 55 1005.1
20260507094758 57 180 4.0 16.0 0.00 0.00 0.00 59 1004.9
20260507094250 57 158 2.0 20.0 0.00 0.00 0.00 59 1005.8
20260507093739 58 203 4.0 20.0 0.00 0.00 0.00 58 1005.8
20260507093229 59 135 9.0 18.0 0.00 0.00 0.00 54 1005.0
20260507092718 60 158 8.0 18.0 0.00 0.00 0.00 50 1005.3
20260507091147 61 203 6.0 15.0 0.00 0.00 0.00 48 1006.2
20260507090638 61 158 4.0 11.0 0.00 0.00 0.00 49 1005.8
20260507085617 61 135 4.0 16.0 0.00 0.00 0.00 50 1005.3
20260507085108 61 180 6.0 17.0 0.00 0.00 0.00 50 1005.0
20260507084558 61 203 9.0 17.0 0.00 0.00 0.00 50 1004.4
20260507084047 61 135 6.0 13.0 0.00 0.00 0.00 51 1005.1
20260507083537 61 203 4.0 11.0 0.00 0.00 0.00 51 1005.3
20260507083028 61 158 7.0 14.0 0.00 0.00 0.00 51 1005.5
20260507082516 61 135 4.0 14.0 0.00 0.00 0.00 52 1005.3
20260507082006 62 158 4.0 14.0 0.00 0.00 0.00 52 1005.7
20260507080946 62 158 7.0 17.0 0.00 0.00 0.00 51 1006.2
20260507080435 62 158 3.0 15.0 0.00 0.00 0.00 51 1005.9
20260507075416 63 158 4.0 21.0 0.00 0.00 0.00 49 1005.9
20260507074906 63 135 8.0 27.0 0.00 0.00 0.00 49 1006.1
20260507074356 63 158 10.0 27.0 0.00 0.00 0.00 48 1005.4
20260507073846 63 158 10.0 22.0 0.00 0.00 0.00 47 1005.8
20260507073335 64 180 6.0 27.0 0.00 0.00 0.00 47 1005.4
20260507072826 64 225 16.0 27.0 0.00 0.00 0.00 46 1005.6
20260507071805 64 135 18.0 27.0 0.00 0.00 0.00 46 1005.1
20260507071255 64 180 8.0 17.0 0.00 0.00 0.00 46 1005.2
20260507065725 64 158 11.0 27.0 0.00 0.00 0.00 45 1005.2
20260507065215 64 158 10.0 24.0 0.00 0.00 0.00 45 1005.0
20260507064707 64 225 11.0 24.0 0.00 0.00 0.00 45 1005.0
20260507064154 65 158 9.0 27.0 0.00 0.00 0.00 45 1005.0
20260507063644 65 135 10.0 27.0 0.00 0.00 0.00 44 1005.1
20260507063136 65 225 4.0 17.0 0.00 0.00 0.00 46 1005.2
20260507062624 65 225 9.0 16.0 0.00 0.00 0.00 46 1004.9
20260507061043 65 158 8.0 23.0 0.00 0.00 0.00 47 1004.5
20260507060534 65 158 13.0 23.0 0.00 0.00 0.00 47 1004.6
20260507055513 65 203 8.0 20.0 0.00 0.00 0.00 51 1004.8
20260507055003 65 180 8.0 20.0 0.00 0.00 0.00 51 1004.8
20260507054453 65 203 5.0 17.0 0.00 0.00 0.00 52 1004.5
20260507053942 66 135 10.0 20.0 0.00 0.00 0.00 52 1004.5
20260507053433 66 158 8.0 22.0 0.00 0.00 0.00 52 1004.4
20260507052923 66 180 8.0 22.0 0.00 0.00 0.00 52 1004.7
20260507052412 66 203 10.0 23.0 0.00 0.00 0.00 53 1004.5
20260507051903 66 158 4.0 23.0 0.00 0.00 0.00 54 1004.6
20260507051352 67 158 11.0 23.0 0.00 0.00 0.00 54 1004.1
20260507050842 67 203 12.0 23.0 0.00 0.00 0.00 54 1004.5
20260507050333 67 225 9.0 21.0 0.00 0.00 0.00 55 1004.5
20260507045823 67 135 9.0 21.0 0.00 0.00 0.00 55 1004.5
20260507045312 67 158 11.0 22.0 0.00 0.00 0.00 55 1003.8
20260507044803 68 203 6.0 23.0 0.00 0.00 0.00 57 1004.6
20260507044253 68 158 13.0 23.0 0.00 0.00 0.00 57 1004.1
20260507043233 68 180 8.0 18.0 0.00 0.00 0.00 65 1003.9
20260507042726 68 135 7.0 14.0 0.00 0.00 0.00 70 1003.8
20260507042211 68 180 6.0 15.0 0.00 0.00 0.00 73 1004.2
20260507041700 68 158 4.0 17.0 0.00 0.00 0.00 72 1004.5
20260507041151 68 135 7.0 17.0 0.00 0.00 0.00 72 1003.9
20260507040640 69 180 8.0 15.0 0.00 0.00 0.00 75 1004.0
20260507040130 69 135 7.0 11.0 0.00 0.00 0.00 77 1004.1
20260507035621 68 203 0.0 7.0 0.00 0.00 0.00 82 1004.0
20260507035110 67 315 3.0 9.0 0.00 0.00 0.00 85 1003.8
20260507033540 66 113 2.0 2.0 0.00 0.00 0.00 88 1003.9
20260507033030 66 270 0.0 2.0 0.00 0.00 0.00 88 1004.0
20260507032520 66 225 0.0 4.0 0.00 0.00 0.00 88 1003.7
20260507031459 66 158 2.0 4.0 0.00 0.00 0.00 87 1003.5
20260507030949 66 113 2.0 2.0 0.00 0.00 0.00 86 1003.2
20260507030440 67 135 2.0 6.0 0.00 0.00 0.00 86 1003.3
20260507025929 68 315 1.0 6.0 0.00 0.00 0.00 84 1003.3
20260507025418 68 338 3.0 4.0 0.00 0.00 0.00 83 1003.3
20260507024909 68 158 1.0 2.0 0.00 0.00 0.00 84 1003.5
20260507024359 68 158 1.0 2.0 0.00 0.00 0.00 83 1003.7
20260507023849 68 158 2.0 4.0 0.00 0.00 0.00 82 1003.7
20260507023339 68 135 2.0 6.0 0.00 0.00 0.00 82 1003.6
20260507022829 68 158 3.0 8.0 0.00 0.00 0.00 82 1003.6
20260507022318 68 158 3.0 8.0 0.00 0.00 0.00 83 1003.8
20260507021808 68 203 1.0 2.0 0.00 0.00 0.00 82 1003.3
20260507021257 69 203 0.0 4.0 0.00 0.00 0.00 81 1003.3
20260507020238 69 248 1.0 6.0 0.00 0.00 0.00 82 1003.6
20260507015728 70 248 2.0 9.0 0.00 0.00 0.00 80 1003.7
20260507015217 71 293 4.0 9.0 0.00 0.00 0.00 78 1003.6
20260507014157 73 338 2.0 6.0 0.00 0.00 0.00 73 1003.6
20260507013647 72 113 2.0 2.0 0.00 0.00 0.00 75 1003.6
20260507013137 70 180 0.0 2.0 0.00 0.00 0.00 78 1003.7
20260507012627 69 158 1.0 2.0 0.00 0.00 0.00 79 1003.4
20260507012117 70 135 2.0 4.0 0.00 0.00 0.00 77 1003.7
20260507011057 71 225 2.0 4.0 0.00 0.00 0.00 77 1003.2
20260507010547 70 203 2.0 4.0 0.00 0.00 0.00 79 1003.1
20260507010037 70 225 2.0 4.0 0.00 0.00 0.00 81 1003.0
20260507005526 70 225 2.0 4.0 0.00 0.00 0.00 81 1003.1
20260507005017 70 338 1.0 4.0 0.00 0.00 0.00 81 1003.1
20260507004506 71 338 2.0 4.0 0.00 0.00 0.00 80 1003.2
20260507003956 71 338 2.0 7.0 0.00 0.00 0.00 79 1002.9
20260507003446 71 338 4.0 8.0 0.00 0.00 0.00 78 1002.6
20260507002936 71 315 2.0 11.0 0.00 0.00 0.00 78 1002.8
20260507001915 73 338 8.0 14.0 0.00 0.00 0.00 75 1002.5
20260507001406 73 0 10.0 17.0 0.00 0.00 0.00 74 1002.4
20260507000856 73 338 10.0 17.0 0.00 0.00 0.00 73 1002.6
20260507000345 73 338 8.0 17.0 0.00 0.00 0.00 74 1002.5
20260506235835 73 0 6.0 14.0 0.00 0.00 0.00 74 1002.3
20260506234815 73 0 9.0 15.0 0.00 0.00 0.00 75 1002.0
20260506234304 74 0 8.0 17.0 0.00 0.00 0.00 74 1002.1
20260506233755 73 293 8.0 17.0 0.00 0.00 0.00 76 1002.3
20260506233244 73 338 8.0 17.0 0.00 0.00 0.00 77 1002.1
20260506232735 73 315 6.0 17.0 0.00 0.00 0.00 76 1002.1
20260506232226 73 338 5.0 14.0 0.00 0.00 0.00 77 1002.1
20260506231715 73 338 6.0 16.0 0.00 0.00 0.00 76 1001.9
20260506231204 73 338 9.0 16.0 0.00 0.00 0.00 76 1001.8
20260506230655 74 315 13.0 16.0 0.00 0.00 0.00 75 1001.9
20260506230143 74 0 8.0 16.0 0.00 0.00 0.00 76 1001.4
20260506225634 74 338 10.0 17.0 0.00 0.00 0.00 75 1001.3
20260506225125 73 0 8.0 17.0 0.00 0.00 0.00 76 1001.2
20260506224614 73 315 9.0 14.0 0.00 0.00 0.00 76 1000.8
20260506224104 73 338 10.0 14.0 0.00 0.00 0.00 76 1000.7
20260506223553 73 0 8.0 14.0 0.00 0.00 0.00 76 1000.7
20260506223044 73 338 7.0 14.0 0.00 0.00 0.00 76 1000.5
20260506222533 74 338 9.0 13.0 0.00 0.00 0.00 75 1000.2
20260506222023 74 0 7.0 11.0 0.00 0.00 0.00 75 1000.3
20260506221520 74 0 6.0 11.0 0.00 0.00 0.00 75 1000.1
20260506221003 74 338 7.0 13.0 0.00 0.00 0.00 74 1000.0
20260506220453 74 338 7.0 13.0 0.00 0.00 0.00 74 1000.1
20260506215942 74 338 7.0 13.0 0.00 0.00 0.00 74 999.9
20260506215432 75 338 8.0 13.0 0.00 0.00 0.00 73 1000.2
20260506214923 75 0 7.0 11.0 0.00 0.00 0.00 71 1000.0
20260506214412 76 45 6.0 15.0 0.00 0.00 0.00 70 999.7
20260506213902 76 0 10.0 15.0 0.00 0.00 0.00 70 999.9
20260506213351 76 0 7.0 11.0 0.00 0.00 0.00 70 1000.0
20260506212843 76 338 5.0 13.0 0.00 0.00 0.00 71 999.7
20260506212331 76 0 8.0 13.0 0.00 0.00 0.00 69 999.7
20260506211824 76 0 8.0 14.0 0.00 0.00 0.00 70 999.7
20260506210802 76 0 8.0 13.0 0.00 0.00 0.00 70 999.5
20260506210251 77 0 9.0 13.0 0.00 0.00 0.00 68 999.6
20260506205741 77 338 5.0 13.0 0.00 0.00 0.00 69 999.9
20260506205231 77 0 7.0 11.0 0.00 0.00 0.00 68 999.9
20260506204721 77 0 6.0 15.0 0.00 0.00 0.00 68 999.9
20260506204211 78 315 6.0 18.0 0.00 0.00 0.00 67 999.7
20260506203701 78 338 8.0 18.0 0.00 0.00 0.00 66 999.9
20260506203150 78 338 10.0 15.0 0.00 0.00 0.00 66 999.9
20260506202641 77 0 10.0 15.0 0.00 0.00 0.00 67 1000.1
20260506202131 78 0 7.0 15.0 0.00 0.00 0.00 66 999.9
20260506201620 78 338 10.0 15.0 0.00 0.00 0.00 65 1000.0
20260506201110 78 23 11.0 16.0 0.00 0.00 0.00 65 1000.2
20260506200600 78 338 7.0 16.0 0.00 0.00 0.00 66 1000.1
20260506200057 78 338 8.0 11.0 0.00 0.00 0.00 65 1000.3
20260506195541 78 315 8.0 13.0 0.00 0.00 0.00 66 1000.5
20260506195030 78 338 7.0 14.0 0.00 0.00 0.00 66 1000.3
20260506194519 78 315 6.0 14.0 0.00 0.00 0.00 65 1000.5
20260506194010 79 338 10.0 17.0 0.00 0.00 0.00 64 1000.3
20260506192950 78 0 10.0 16.0 0.00 0.00 0.00 66 1000.5
20260506191929 79 315 11.0 22.0 0.00 0.00 0.00 65 1000.9
20260506190909 79 338 11.0 21.0 0.00 0.00 0.00 65 1000.5
20260506190359 79 0 11.0 21.0 0.00 0.00 0.00 64 1000.7
20260506185848 79 338 10.0 18.0 0.00 0.00 0.00 65 1000.8
20260506185339 79 0 14.0 22.0 0.00 0.00 0.00 65 1000.7
20260506184828 78 0 13.0 23.0 0.00 0.00 0.00 65 1000.5
20260506184318 78 338 10.0 23.0 0.00 0.00 0.00 66 1000.9
20260506183808 79 0 14.0 20.0 0.00 0.00 0.00 65 1000.8
20260506183258 78 338 8.0 23.0 0.00 0.00 0.00 66 1001.0
20260506182237 78 338 10.0 23.0 0.00 0.00 0.00 66 1001.2
20260506181728 78 338 6.0 17.0 0.00 0.00 0.00 66 1001.0
20260506180708 78 338 8.0 13.0 0.00 0.00 0.00 66 1001.2
20260506180157 78 338 8.0 21.0 0.00 0.00 0.00 67 1001.0
20260506175137 79 338 13.0 20.0 0.00 0.00 0.00 64 1001.3
20260506174117 78 0 11.0 25.0 0.00 0.00 0.00 66 1001.7
20260506173608 77 338 11.0 16.0 0.00 0.00 0.00 67 1001.6
20260506173057 77 338 11.0 14.0 0.00 0.00 0.00 67 1001.7
20260506172548 77 338 8.0 16.0 0.00 0.00 0.00 68 1001.7
20260506172036 78 293 7.0 17.0 0.00 0.00 0.00 66 1001.7
20260506171526 78 338 8.0 17.0 0.00 0.00 0.00 65 1001.8
20260506170505 78 0 9.0 21.0 0.00 0.00 0.00 66 1001.9
20260506165955 78 23 10.0 18.0 0.00 0.00 0.00 65 1002.0
20260506164936 78 338 9.0 23.0 0.00 0.00 0.00 66 1002.4
20260506163915 77 0 8.0 18.0 0.00 0.00 0.00 67 1002.6
20260506163405 76 338 15.0 18.0 0.00 0.00 0.00 68 1002.9
20260506162345 77 338 10.0 16.0 0.00 0.00 0.00 67 1003.2
20260506161834 76 0 8.0 17.0 0.00 0.00 0.00 69 1002.9
20260506161325 76 338 8.0 21.0 0.00 0.00 0.00 70 1003.3
20260506160815 76 338 8.0 22.0 0.00 0.00 0.00 69 1003.2
20260506160304 76 0 11.0 22.0 0.00 0.00 0.00 69 1003.2
20260506155754 76 338 8.0 18.0 0.00 0.00 0.00 68 1003.6
20260506155245 76 0 10.0 17.0 0.00 0.00 0.00 69 1003.8
20260506154224 76 315 7.0 17.0 0.00 0.00 0.00 70 1004.5